Wind_Speed
36 36 35 32 30 27 27 29 34 37 40 41 40 40 39 42 42 40 40 40 40 41 41 42 40 39 40 40 40 41 38 39 37 43 45 38 41 42 40 39 40 41 42 46 47
37 38 37 34 33 31 30 32 34 37 41 41 41 39 40 40 41 43 40 41 40 39 39 40 40 39 40 43 41 42 40 40 42 44 43 44 42 41 40 42 43 46 47 46 44
37 39 38 38 36 35 33 34 35 36 41 41 40 39 40 40 40 42 41 43 43 43 41 43 42 41 43 44 42 41 43 42 39 42 44 43 43 42 39 42 44 46 44 36 35
39 39 39 39 37 37 34 35 36 36 40 41 41 41 42 42 41 41 43 45 44 43 43 43 44 42 41 42 43 44 46 45 43 42 41 41 40 40 37 39 38 36 36 29 28
40 40 40 40 40 39 37 37 38 38 39 42 42 41 43 42 42 41 42 42 44 44 43 43 44 43 42 43 46 48 47 45 40 38 39 38 35 33 27 22 23 21 20 24 22
44 44 44 43 44 43 41 41 41 41 42 43 44 44 44 42 43 42 42 42 43 44 44 43 42 42 44 46 46 45 45 40 39 37 37 38 37 27 18 18 15 14 20 29 26
51 51 50 49 47 45 44 43 43 43 43 44 44 46 47 42 43 44 43 43 43 45 45 43 43 42 44 45 46 45 41 37 37 35 34 37 28 14 15 15 14 15 21 26 32
57 56 53 53 49 47 46 46 45 45 44 45 44 46 46 44 46 46 45 44 43 45 44 44 43 44 45 46 45 43 41 38 35 32 31 31 32 26 16 11 7 10 16 5 18
61 57 53 51 47 47 46 46 45 44 45 46 45 46 47 46 49 49 46 43 44 45 45 42 42 43 44 45 44 39 38 37 34 29 29 32 31 30 18 11 7 16 7 4 9
50 47 46 47 48 47 47 45 44 42 40 43 44 45 48 49 51 48 47 44 45 45 44 40 39 41 40 43 42 36 35 31 31 29 28 31 31 33 17 15 11 19 9 13 8
34 34 40 42 44 42 42 42 39 38 35 33 39 43 45 48 48 45 46 46 48 47 43 42 41 39 34 37 38 32 29 28 28 26 26 29 28 33 29 20 19 27 24 8 2
32 34 35 36 38 38 35 38 35 35 34 33 33 34 42 42 43 46 44 46 48 45 38 36 35 33 33 33 31 31 33 32 28 26 23 30 34 37 36 23 31 32 24 13 1
30 29 32 34 36 32 32 37 36 35 33 35 35 35 36 37 41 44 45 43 43 40 39 35 32 35 37 34 33 35 33 31 30 25 29 23 29 38 35 31 37 30 28 19 10
28 28 28 32 32 31 35 36 34 35 35 41 37 40 33 36 39 42 42 41 47 49 44 38 39 38 40 41 36 38 36 39 39 35 34 17 16 18 25 32 32 32 34 26 15
26 31 29 28 30 32 39 36 37 39 37 45 41 39 42 39 44 39 41 40 43 43 42 54 49 41 38 40 35 38 31 34 35 31 26 6 9 12 13 14 18 17 31 20 16
29 31 33 33 33 33 37 32 35 39 41 44 45 46 44 43 43 38 38 38 39 38 37 46 43 34 36 36 37 33 32 28 28 24 17 11 5 9 7 9 16 18 20 38 31
28 29 30 30 31 33 32 29 32 31 41 42 45 47 43 44 41 35 35 37 39 32 32 38 36 36 33 36 32 30 31 32 29 19 14 11 9 5 8 9 13 14 12 17 23
28 28 29 25 26 23 22 24 24 30 32 25 31 38 40 42 42 34 34 37 38 33 34 33 34 35 34 30 28 33 35 30 25 15 16 10 14 17 13 12 11 18 12 17 24
35 33 30 28 25 22 20 20 26 28 19 16 23 32 40 41 40 34 33 37 38 34 35 35 36 32 30 32 32 33 30 25 22 16 17 12 21 19 16 15 15 17 21 15 16
41 39 35 34 29 27 26 27 29 23 16 13 20 27 38 40 35 33 32 35 38 36 37 39 36 33 34 32 32 27 25 21 22 18 19 12 14 21 25 23 21 21 17 13 14
47 43 42 40 37 33 33 35 30 21 16 18 18 20 31 38 34 27 30 33 34 34 34 35 35 36 34 32 33 24 24 19 20 17 14 13 20 30 29 32 26 25 26 21 10
54 50 48 45 43 42 41 40 34 25 20 21 20 21 29 35 31 22 33 34 39 34 32 33 33 34 35 29 29 23 24 22 21 14 14 17 25 32 32 24 25 22 22 24 21
59 57 55 51 47 45 44 43 38 31 23 25 23 21 23 25 23 26 34 36 25 22 26 30 27 33 31 28 31 26 26 22 19 12 13 16 26 28 26 17 12 15 21 16 18
64 62 59 57 54 48 45 45 42 39 32 32 29 24 22 22 24 27 33 27 20 18 20 23 24 28 27 28 27 27 27 22 17 13 13 26 22 23 17 14 14 19 12 18 25
70 69 67 65 61 56 54 55 53 49 45 39 34 30 28 26 27 31 31 24 18 21 19 19 21 24 23 26 27 29 28 24 23 16 13 27 29 29 29 22 23 4 1 18 21
77 73 70 67 66 64 61 61 58 55 48 42 39 37 31 29 29 31 33 24 22 21 20 16 22 27 25 28 27 29 30 29 23 20 21 26 28 28 30 28 15 11 6 12 12
82 78 74 72 71 70 65 63 59 56 51 49 45 41 35 34 30 34 34 28 27 27 24 22 26 27 27 28 26 27 27 25 25 22 23 23 25 31 30 21 21 19 11 15 14
Wind_Direction
228 233 238 242 242 244 247 241 240 235 234 233 235 232 229 230 236 235 236 237 241 243 247 250 252 255 258 261 268 272 278 281 285 291 297 299 297 296 303 296 293 295 297 301 299
226 232 236 240 242 244 245 243 240 237 233 233 232 233 230 229 230 233 236 238 241 242 246 251 253 256 259 263 270 276 278 280 285 289 295 298 298 302 305 301 302 302 302 303 299
227 231 236 239 243 243 242 240 238 236 232 232 230 230 232 231 228 230 235 238 240 245 247 252 256 260 264 270 272 274 278 283 285 289 296 297 301 303 303 298 300 302 302 300 302
231 231 235 238 242 243 241 240 239 235 233 230 228 228 230 231 229 230 234 238 242 246 249 253 258 262 266 268 270 275 280 284 286 291 292 298 301 303 303 300 302 304 304 324 331
234 235 237 239 240 242 242 240 238 235 231 230 230 227 229 229 233 233 235 239 244 247 249 254 261 264 264 267 272 276 279 282 288 287 292 294 292 297 308 309 311 310 327 340 329
237 240 242 242 242 240 241 241 237 234 231 230 230 230 232 229 233 236 238 239 243 249 252 255 258 262 265 269 271 273 277 286 288 289 292 293 298 298 284 313 318 333 360 7 351
240 240 242 244 242 239 240 238 237 234 234 234 232 230 232 232 233 235 238 242 245 249 250 253 257 260 264 267 270 273 277 280 281 285 289 288 294 283 271 304 341 324 320 314 345
240 240 241 242 240 237 238 236 235 234 234 234 234 231 235 231 234 236 240 245 248 248 248 251 255 258 262 266 270 274 279 279 282 284 291 283 289 299 270 304 298 338 300 335 316
243 243 240 239 236 233 231 233 234 232 234 235 233 229 232 236 234 240 242 244 246 248 250 253 257 258 261 263 267 272 276 282 283 281 274 282 294 292 306 252 279 307 294 5 281
236 233 231 230 226 226 226 230 231 231 235 237 237 234 233 234 238 238 244 246 245 248 250 253 256 257 260 266 269 272 275 275 279 287 278 282 284 281 291 270 290 283 279 196 216
213 216 216 224 222 218 222 225 228 228 229 231 235 236 239 239 239 242 236 239 245 247 249 254 254 257 257 264 271 271 271 269 276 276 277 273 269 276 283 268 293 287 207 188 266
214 217 219 217 211 213 218 226 226 226 229 229 231 232 237 239 239 242 243 240 245 250 249 249 251 255 255 258 267 273 265 268 270 270 280 273 278 265 269 270 279 272 236 208 142
210 212 213 212 210 215 221 226 222 228 230 231 235 236 236 241 243 242 242 240 241 251 250 249 243 245 245 251 262 266 265 265 264 274 277 273 268 269 258 262 266 242 218 193 172
209 208 214 216 217 221 228 232 229 234 237 237 238 246 243 243 245 240 242 240 241 239 247 244 249 250 251 252 256 263 265 265 268 277 284 267 260 260 236 238 233 218 201 214 223
213 217 220 221 221 223 234 237 235 237 237 244 237 246 243 238 242 245 244 240 240 243 241 243 250 252 258 253 247 258 264 268 267 274 280 229 264 268 262 236 206 223 212 219 222
222 224 227 229 230 234 240 237 242 244 245 244 247 244 245 243 242 243 244 242 240 244 242 242 245 246 246 249 250 246 256 267 264 269 263 255 216 231 215 185 221 228 222 222 231
225 227 231 229 234 236 238 234 236 244 243 240 241 243 240 241 243 240 238 241 242 233 239 240 241 249 252 244 238 249 253 265 262 259 245 219 184 171 162 162 208 239 243 231 249
220 215 218 216 219 218 218 220 229 239 240 241 240 243 242 236 238 238 233 234 238 238 239 235 238 239 244 239 242 250 259 255 250 232 231 206 159 172 167 165 201 204 223 227 242
222 221 219 216 215 213 213 216 231 237 246 232 230 231 237 236 234 233 234 239 238 235 235 235 238 240 236 241 244 250 248 245 231 218 216 172 168 180 166 167 172 180 187 204 228
231 229 225 226 223 218 218 222 232 235 239 230 236 235 229 236 232 227 227 238 242 237 235 235 237 237 233 237 245 242 238 225 221 204 211 185 179 201 199 175 175 159 155 177 200
233 232 231 232 231 228 225 231 238 239 225 233 230 228 223 236 232 220 219 224 237 238 238 238 236 237 234 237 241 231 220 218 204 209 209 210 201 196 200 179 184 183 188 185 161
232 233 234 233 232 233 235 236 242 240 226 230 230 231 229 228 241 228 221 222 232 235 232 237 233 241 235 233 231 219 214 202 197 196 211 209 217 204 199 179 180 197 215 224 228
233 233 233 233 233 234 236 239 242 244 236 231 234 232 232 236 230 218 216 225 235 236 223 231 226 234 228 224 215 208 199 193 193 194 219 177 204 209 212 205 205 215 216 212 233
234 236 236 235 234 234 235 240 242 242 237 233 234 232 236 227 221 220 222 229 227 227 223 226 225 221 218 206 201 196 196 191 183 201 175 176 189 184 180 217 210 233 216 207 216
233 233 234 234 232 229 231 234 235 236 235 232 234 229 221 226 221 225 227 226 221 226 220 220 214 213 200 193 201 188 196 195 203 198 189 179 184 193 201 202 191 211 342 201 189
235 235 233 233 235 233 232 232 234 234 234 230 230 233 231 231 222 230 233 209 227 228 222 207 205 205 196 189 188 195 196 203 194 186 174 184 195 203 202 188 213 219 180 200 187
235 235 233 232 232 232 232 232 232 238 235 236 233 235 233 226 229 231 231 207 215 220 217 206 200 193 189 186 190 204 203 200 197 191 190 185 199 209 216 208 210 216 228 204 243
Height
10871 10876 10881 10884 10889 10892 10896 10900 10904 10908 10913 10917 10922 10927 10932 10936 10940 10943 10945 10946 10948 10951 10953 10955 10959 10961 10961 10960 10959 10960 10961 10959 10958 10956 10955 10964 10961 10956 10954 10950 10952 10948 10945 10942 10938
10864 10869 10873 10877 10881 10885 10889 10892 10896 10900 10906 10911 10915 10920 10925 10929 10933 10937 10940 10941 10944 10946 10948 10950 10953 10954 10953 10953 10955 10954 10954 10953 10953 10952 10953 10952 10954 10951 10947 10940 10941 10938 10937 10936 10935
10858 10862 10866 10870 10873 10877 10881 10885 10889 10893 10898 10904 10909 10913 10917 10921 10927 10929 10933 10936 10939 10941 10943 10944 10947 10948 10947 10946 10948 10947 10944 10945 10948 10947 10947 10946 10945 10942 10943 10933 10933 10930 10929 10930 10928
10850 10855 10859 10863 10866 10869 10873 10877 10881 10886 10891 10897 10903 10907 10909 10914 10919 10923 10926 10930 10932 10935 10937 10939 10941 10942 10941 10939 10939 10940 10938 10939 10942 10943 10941 10942 10939 10935 10935 10932 10929 10923 10920 10923 10924
10841 10846 10850 10854 10858 10861 10864 10869 10873 10878 10884 10890 10895 10900 10902 10907 10912 10916 10920 10924 10925 10928 10930 10932 10934 10934 10934 10933 10932 10932 10932 10933 10937 10936 10936 10936 10933 10931 10929 10925 10922 10918 10915 10916 10916
10831 10836 10840 10845 10849 10852 10856 10861 10866 10871 10876 10882 10888 10892 10894 10902 10903 10909 10913 10916 10918 10920 10923 10926 10927 10926 10925 10926 10926 10926 10925 10930 10927 10927 10928 10924 10927 10926 10919 10917 10914 10914 10914 10912 10909
10820 10825 10829 10834 10839 10844 10848 10853 10858 10863 10868 10874 10879 10884 10887 10895 10898 10901 10905 10908 10910 10913 10916 10919 10920 10920 10918 10917 10917 10918 10923 10925 10922 10922 10923 10918 10920 10919 10918 10911 10909 10907 10908 10908 10907
10807 10812 10818 10823 10829 10834 10840 10845 10850 10856 10861 10866 10871 10877 10880 10888 10890 10895 10897 10900 10902 10905 10908 10912 10913 10912 10911 10910 10909 10913 10916 10916 10917 10916 10917 10913 10909 10910 10913 10911 10906 10905 10905 10905 10913
10793 10800 10806 10812 10819 10825 10832 10837 10842 10848 10853 10858 10863 10868 10873 10878 10882 10885 10889 10893 10895 10897 10900 10904 10905 10903 10902 10902 10904 10907 10908 10909 10909 10911 10908 10905 10902 10903 10909 10908 10904 10902 10908 10904 10907
10780 10788 10796 10802 10809 10816 10824 10829 10834 10841 10846 10850 10855 10861 10864 10867 10871 10879 10881 10884 10887 10889 10893 10897 10896 10894 10896 10893 10897 10902 10903 10904 10901 10901 10901 10899 10898 10896 10901 10903 10900 10901 10903 10901 10903
10775 10781 10788 10794 10801 10809 10817 10822 10827 10834 10839 10845 10847 10853 10855 10860 10865 10868 10873 10875 10878 10881 10887 10889 10887 10888 10891 10888 10888 10894 10895 10896 10896 10899 10898 10894 10892 10893 10893 10894 10896 10898 10902 10899 10898
10772 10777 10783 10789 10795 10804 10811 10816 10823 10827 10833 10837 10840 10844 10847 10851 10855 10859 10863 10867 10871 10873 10878 10880 10880 10883 10883 10884 10884 10886 10887 10888 10890 10894 10895 10890 10884 10888 10891 10892 10894 10894 10894 10897 10896
10767 10773 10778 10784 10792 10802 10806 10807 10815 10820 10826 10829 10832 10836 10839 10843 10846 10850 10853 10858 10861 10864 10869 10871 10875 10876 10878 10879 10880 10878 10878 10881 10883 10887 10887 10887 10880 10880 10890 10886 10887 10883 10887 10893 10896
10763 10769 10774 10781 10788 10795 10798 10801 10813 10814 10818 10818 10824 10825 10834 10835 10836 10839 10842 10849 10852 10855 10861 10864 10866 10869 10872 10872 10875 10870 10873 10871 10874 10878 10879 10880 10877 10873 10875 10877 10882 10880 10883 10889 10890
10760 10765 10770 10776 10783 10789 10788 10797 10802 10804 10811 10806 10817 10818 10820 10825 10821 10832 10834 10839 10841 10843 10854 10852 10856 10861 10863 10863 10869 10864 10866 10864 10868 10871 10872 10872 10871 10868 10866 10873 10875 10875 10874 10879 10884
10756 10761 10765 10771 10776 10780 10782 10792 10794 10796 10798 10801 10803 10806 10810 10812 10816 10824 10826 10829 10833 10837 10842 10842 10846 10854 10854 10856 10858 10859 10860 10861 10862 10866 10867 10866 10868 10866 10866 10869 10869 10868 10868 10869 10874
10750 10755 10758 10764 10768 10772 10776 10782 10785 10786 10783 10790 10793 10795 10802 10805 10808 10816 10819 10820 10822 10830 10832 10833 10840 10845 10847 10847 10851 10853 10854 10856 10858 10861 10862 10863 10867 10868 10867 10867 10869 10867 10870 10872 10872
10745 10749 10752 10758 10762 10767 10770 10774 10777 10774 10775 10786 10789 10789 10792 10796 10800 10807 10810 10811 10815 10822 10824 10828 10832 10834 10837 10841 10846 10847 10848 10850 10852 10856 10856 10860 10865 10865 10865 10865 10866 10869 10874 10876 10882
10738 10742 10747 10752 10757 10761 10765 10768 10767 10768 10773 10777 10778 10778 10781 10786 10791 10800 10804 10804 10808 10814 10817 10821 10823 10828 10832 10833 10838 10840 10841 10844 10848 10851 10853 10857 10862 10863 10864 10865 10865 10867 10872 10879 10881
10729 10735 10742 10745 10751 10756 10759 10760 10759 10764 10768 10771 10772 10772 10773 10776 10785 10793 10799 10798 10800 10806 10810 10813 10816 10822 10824 10828 10830 10833 10837 10840 10843 10847 10849 10854 10858 10859 10858 10862 10862 10867 10878 10880 10881
10720 10727 10732 10738 10744 10748 10751 10750 10753 10759 10763 10764 10765 10766 10768 10771 10777 10787 10790 10792 10794 10798 10801 10805 10810 10813 10818 10821 10822 10828 10832 10837 10841 10843 10845 10848 10851 10850 10852 10861 10861 10861 10858 10867 10872
10708 10716 10721 10728 10734 10739 10743 10744 10748 10753 10757 10758 10760 10762 10763 10765 10772 10781 10781 10783 10783 10789 10795 10799 10804 10804 10809 10815 10819 10823 10827 10832 10836 10838 10840 10842 10843 10844 10848 10853 10857 10857 10857 10860 10859
10695 10702 10708 10716 10723 10730 10734 10738 10743 10746 10752 10754 10755 10757 10760 10765 10769 10773 10776 10777 10782 10785 10788 10790 10797 10798 10802 10807 10812 10817 10823 10829 10831 10834 10833 10837 10836 10839 10842 10849 10849 10853 10856 10858 10856
10682 10689 10698 10703 10710 10721 10727 10732 10735 10737 10743 10746 10750 10754 10757 10761 10765 10768 10770 10774 10779 10783 10785 10787 10790 10793 10796 10802 10808 10814 10820 10824 10827 10829 10830 10833 10836 10838 10841 10842 10844 10846 10847 10850 10851
10663 10670 10679 10685 10694 10706 10712 10714 10719 10723 10730 10739 10744 10747 10751 10756 10761 10762 10765 10771 10777 10779 10781 10783 10786 10790 10794 10800 10804 10810 10815 10820 10822 10825 10828 10831 10833 10835 10837 10838 10841 10843 10843 10845 10846
10642 10654 10665 10674 10680 10690 10696 10701 10707 10713 10725 10732 10738 10740 10747 10752 10756 10757 10762 10769 10773 10776 10778 10781 10784 10787 10792 10796 10801 10806 10810 10813 10818 10818 10823 10827 10829 10831 10833 10837 10838 10841 10843 10842 10846
10623 10637 10646 10656 10662 10670 10681 10692 10701 10710 10717 10722 10730 10736 10742 10745 10752 10753 10757 10764 10766 10769 10774 10777 10780 10785 10788 10792 10798 10803 10806 10810 10813 10817 10821 10826 10828 10829 10830 10835 10837 10838 10838 10841 10842